Location: Casteau
(50.5142°N, 4.0161°E)
Time: 07:39:16
(UTC+00:00)

Transit 2A - Pass Details

Date: 03 August 2021
Orbit: 594 x 964 km, 66.7° (Epoch: 24 September)

Event Time Altitude Azimuth Distance (km) Brightness Sun altitude
Rises 14:28:12 0° 319° (NW) 3,234 9.3 44.3°
Reaches altitude 10° 14:30:34 10° 313° (NW) 2,362 8.8 44.0°
Maximum altitude 14:35:45 45° 242° (WSW) 1,137 10.8 43.3°
Drops below altitude 10° 14:41:24 10° 171° (S) 2,574 9.0 42.5°
Sets 14:44:06 0° 166° (SSE) 3,554 9.6 42.1°
